DELTA 1 DEB, 10646

Orbit data source: Space-Track

DELTA 1 DEB, 10646 is space debris in SSO originally from a launch on Thu, 29 Jul 1976 UTC launched from the Air Force Western Test Range (AFWTR). Debris objects in space refer to the collection of defunct objects orbiting the Earth. Examples of debris include non-operational satellites, rocket bodies, and fragments generated from explosions, collisions, or faulty payload assembly.

Loading next visibility...
Identifier
10646, 1976-077G
Orbit
SSO
Country
Flag of USUS
Related business
Manufacturer
Unknown
Mission
Spacecraft
Bus & Motor
Unknown
Mass
Unknown
Launch date (UTC)
1976-07-29 (50 years ago)
Launch vehicle
Unknown
Launch site
Air Force Western Test Range (AFWTR)
Object type
Payload
Rocket body
Debris
Shape & HBR
Unknown shape, 0.4 m
Radar Cross Section
Medium (>0.1 m² and <1 m²)

Expand to show TLE details & history
Last TLE update: 4 hours ago

TLE from 4 hours ago
0 DELTA 1 DEB
1 10646U 76077G   26038.30572841 -.00000010  00000-0  35193-3 0  9999
2 10646 102.6409 351.3423 0143700 228.5958 293.5264 12.14461417196565
Epoch: 2026-02-07T07:20Z
TLE epoch observation values (Epoch: 2026-02-07T07:20:14.934Z)
Latitude
18.91032°
Longitude
-71.76602°
Altitude
1,574.313 km
Speed
7.102 km/s
True Right ascension
11h 42m 54s
True Declination
18° 48' 57"
Sunlit
Object was in full shadow at epoch
Visualization orbit readout
Latitude
Unknown
Longitude
Unknown
Altitude
Unknown
Speed
Unknown
Apparent Right ascension
Unknown
Apparent Declination
Unknown
Sunlit
N/A
Visualization observer readout
Local Sidereal Time
13:03:10
Azimuth
Unknown
Elevation
Unknown
Doppler factor
Unknown
Orbital elements
Apogee altitude
1,729.256 km
Perigee altitude
1,499.55 km
Semi-major axis
7,992.54 km
Eccentricity
0.01437
Inclination
102.6409°
RAAN
351.3423°
Arg. of periapsis
228.5958°
True anomaly
292.00588°
Mean anomaly
293.5264°
Eccentric anomaly
292.76721°
Mean motion
3.0375 °/min
Orbital period
118.52 mins
BSTAR
0.00035193
Loading maneuver chart data...
Computing Atmospheric mass density...
Loading historical data...
Loading historical data...
Loading historical data...
Loading historical data...
Loading historical data...
Loading historical data...
Loading historical data...

Documentation

Showing up to 5 results
|